FENGYUN 1C DEB, 38803

Orbit data source: Space-Track

FENGYUN 1C DEB, 38803 is space debris in SSO originally from a launch on Mon, 10 May 1999 UTC launched from the Taiyaun Space Center, China (TSC). Fengyun 1C debris stems from the Chinese weather satellite Fengyun-1C, which was intentionally destroyed by a Chinese anti-satellite missile in 2007. This event dramatically increased the amount of space debris, with thousands of trackable fragments posing hazards to satellites and human spaceflight. The Fengyun 1C debris cloud has become a focal point in discussions about space sustainability and the need for international regulations to prevent the creation of new debris.

Loading next visibility...
Identifier
38803, 1999-025EUT
Orbit
SSO
Country
Flag of CNCN / PRC
Related business
Manufacturer
Unknown
Mission
Spacecraft
Bus & Motor
Unknown
Mass
Unknown
Launch date (UTC)
1999-05-10 (27 years ago)
Launch vehicle
Unknown
Launch site
Taiyaun Space Center, China (TSC)
Object type
Payload
Rocket body
Debris
Shape & HBR
Unknown shape, 0.1 m
Radar Cross Section
Small (<0.1 m²)

Expand to show TLE details & history
Last TLE update: 1 week ago

TLE from 1 week ago
0 FENGYUN 1C DEB
1 38803U 99025EUT 25345.96752560  .00007334  00000-0  31650-2 0  9990
2 38803  99.1403 349.7804 0064240  38.5359 322.0379 14.23655987602019
Epoch: 2025-12-11T23:13Z
TLE epoch observation values (Epoch: 2025-12-11T23:13:14.211Z)
Latitude
-0.00002°
Longitude
-79.44471°
Altitude
779.605 km
Speed
7.483 km/s
True Right ascension
23h 19m 07s
True Declination
0° 00' 00"
Sunlit
Object was in daylight at epoch
Visualization orbit readout
Latitude
Unknown
Longitude
Unknown
Altitude
Unknown
Speed
Unknown
Apparent Right ascension
Unknown
Apparent Declination
Unknown
Sunlit
N/A
Visualization observer readout
Local Sidereal Time
05:04:03
Azimuth
Unknown
Elevation
Unknown
Doppler factor
Unknown
Orbital elements
Apogee altitude
856.367 km
Perigee altitude
764.012 km
Semi-major axis
7,188.327 km
Eccentricity
0.00642
Inclination
99.1403°
RAAN
349.7804°
Arg. of periapsis
38.5359°
True anomaly
321.58219°
Mean anomaly
322.0379°
Eccentric anomaly
321.81034°
Mean motion
3.56124 °/min
Orbital period
101.09 mins
BSTAR
0.003165
Loading maneuver chart data...
Computing Atmospheric mass density...

Documentation

Showing up to 5 results
|